Regional Weather Roundup
Issued by NWS

Home | Current Version | Previous Version | Text Only | Print | Product List | Glossary On
Versions: 1 2 3 4 5 6 7 8 9 10 11 12 13 14 15 16 17 18 19 20 21 22 23 24 25 26 27
000
ASUS44 KBMX 222110
RWRAL

ALABAMA REGIONAL WEATHER ROUNDUP
NATIONAL WEATHER SERVICE BIRMINGHAM AL
400 PM CDT TUE MAY 22 2018

NOTE: "FAIR" INDICATES FEW OR NO CLOUDS BELOW 12,000 FEET
WITH NO SIGNIFICANT WEATHER AND/OR OBSTRUCTIONS TO VISIBILITY.

THE REMARK "TC" DENOTES TEMPERATURE IN DEGREES CELSIUS.

ALZ001>011-014-016>018-020-222200-
NORTH ALABAMA

CITY           SKY/WX    TMP DP  RH WIND       PRES   REMARKS
MUSCLE SHOALS  FAIR      86  67  52 N5        30.00F
HUNTSVILLE     FAIR      86  67  52 SE5       29.99F
DECATUR        FAIR      85  68  56 N5        30.00F
HALEYVILLE     FAIR      83  70  64 N3        30.03F
GADSDEN        PTSUNNY   78  73  84 S5        30.01F
$$

ALZ012-013-022-023-030>036-040>044-222200-
WEST CENTRAL ALABAMA

CITY           SKY/WX    TMP DP  RH WIND       PRES   REMARKS
TUSCALOOSA     FAIR      85  67  54 CALM      29.97F
DEMOPOLIS      NOT AVBL
$$

ALZ015-024>026-033>036-041>044-222200-
CENTRAL ALABAMA

CITY           SKY/WX    TMP DP  RH WIND       PRES   REMARKS
BIRMINGHAM     PTSUNNY   80  73  79 E5        30.02F
MONTGOMERY     LGT RAIN  81  73  76 E8        29.97F
SHELBY CO ARPT FAIR      81  68  64 VRB3      29.99F
MAXWELL AFB    FAIR      82  71  69 E5        29.97F
GREENVILLE     PTSUNNY   84  71  65 VRB6      29.97F
SELMA          NOT AVBL
PRATTVILLE     LGT RAIN  76  75  96 CALM      29.97F
BESSEMER       MOCLDY    80  71  74 N7        30.00F
TALLADEGA      FAIR      80  69  70 CALM      30.01F
PELL CITY      NOT AVBL
MARION         CLOUDY    85  69  57 W7        29.97F
SYLACAUGA      LGT RAIN  75  73  93 CALM      30.01F
$$

ALZ019-021-028-029-037-038-045>048-222200-
EAST CENTRAL ALABAMA

CITY           SKY/WX    TMP DP  RH WIND       PRES   REMARKS
ANNISTON       LGT RAIN  75  70  84 S3        30.01F
ALEXANDER CITY CLOUDY    71  71 100 CALM      30.01F
AUBURN         RAIN      71  70  96 S6        30.04S
$$

ALZ051>064-222200-
SOUTHWEST ALABAMA

CITY           SKY/WX    TMP DP  RH WIND       PRES   REMARKS
MOBILE         LGT RAIN  76  70  82 E14       29.98S
BROOKLEY FIELD FAIR      83  68  60 NW8       30.00R THUNDER HAZE
EVERGREEN      PTSUNNY   86  68  54 SE3       29.97F
$$

ALZ049-050-065>069-222200-
SOUTHEAST ALABAMA

CITY           SKY/WX    TMP DP  RH WIND       PRES   REMARKS
DOTHAN         FAIR      73  69  87 S6        30.05F
OZARK          FAIR      82  72  72 S10       30.00F HAZE
TROY           TSTM      74  71  91 SE9       30.02R
EUFAULA        FAIR      84  71  65 S10G17    29.99F
$$




USA.gov is the U.S. government's official web portal to all federal, state and local government web resources and services.